Location: Prague
(50.0830°N, 14.4670°E)
Time: 20:34:03
(UTC+01:00)

FO-29 - Pass Details

Date: 15 December 2021
Orbit: 801 x 1321 km, 98.5° (Epoch: 19 January)

Event Time Altitude Azimuth Distance (km) Brightness Sun altitude
Exits shadow 19:32:38 10° 353° (N) 2,431 11.7 -32.8°
Drops below altitude 10° 19:32:47 10° 352° (N) 2,490 11.7 -32.8°
Sets 19:35:11 0° 349° (NNW) 3,447 12.5 -33.2°
